Vienna, OH

3:15 AM EST on February 09, 2016 (GMT -0500)
Youngstown-Warren Regional

Weather History for KYNG - October, 2014

Change the Weather History Date:

Friday, October 24, 2014

  Actual Average Record
Temperature  
Mean Temperature 47 °F 49 °F  
Max Temperature 61 °F 58 °F 80 °F (1963)
Min Temperature 33 °F 39 °F 20 °F (1969)
Degree Days  
Heating Degree Days 18 16  
Month to date heating degree days 294 316  
Since 1 July heating degree days 487 499  
Cooling Degree Days 0 0  
Month to date cooling degree days 3 3  
Year to date cooling degree days 533 541  
Moisture  
Dew Point 39 °F    
Average Humidity 71    
Maximum Humidity 100    
Minimum Humidity 42    
Precipitation  
Precipitation 0.00 in 0.09 in 1.16 in (1955)
Month to date precipitation 2.92 2.16  
Year to date precipitation 34.38 32.13  
Snow  
Snow 0.00 in 0.10 in - ()
Month to date snowfall T 0.5  
Since 1 July snowfall T 0.5  
Since 1 September snowfall T 0.5  
Snow Depth 0.00 in    
Sea Level Pressure  
Sea Level Pressure 30.06 in    
Wind  
Wind Speed 3 mph (West)    
Max Wind Speed 13 mph    
Max Gust Speed 15 mph    
Visibility 9 miles    
Events Fog    
T = Trace of Precipitation, MM = Missing Value Source: NWS Daily Summary

Daily Weather History Graph

Daily Weather History Graph

Search for Another Location

Airport or City:

Trip Planner

Search our weather history database for the weather conditions in past years. The results will help you decide how hot, cold, wet, or windy it might be!

Date:

Astronomy

Oct. 24, 2014 Rise Set
Actual Time 7:44 AM EDT 6:28 PM EDT
Civil Twilight 7:16 AM EDT 6:56 PM EDT
Nautical Twilight 6:44 AM EDT 7:28 PM EDT
Astronomical Twilight 6:12 AM EDT 8:00 PM EDT
Moon 8:22 AM EDT (10/24) 7:07 PM EDT (10/24)
Length of Visible Light 11h 40m
Length of Day
10h 43m
New Moon, 1% of the Moon is Illuminated
Oct 24
New Moon
Oct 30
First Quarter
Nov 6
Full
Nov 14
Last Quarter
Nov 22
New

Hourly Weather History & Observations

Time (EDT) Temp. Windchill Dew Point Humidity Pressure Visibility Wind Dir Wind Speed Gust Speed Precip Events Conditions
12:51 AM 41.0 °F 37.1 °F 39.9 °F 96% 30.08 in 10.0 mi WNW 5.8 mph - N/A Fog Shallow Fog
1:51 AM 42.1 °F 38.4 °F 39.9 °F 92% 30.09 in 8.0 mi West 5.8 mph - N/A Fog Shallow Fog
2:51 AM 41.0 °F - 39.9 °F 96% 30.10 in 10.0 mi Calm Calm - N/A Fog Shallow Fog
3:51 AM 39.0 °F - 37.9 °F 96% 30.09 in 10.0 mi Calm Calm - N/A Fog Shallow Fog
4:51 AM 37.0 °F - 35.1 °F 93% 30.09 in 10.0 mi Calm Calm - N/A Fog Shallow Fog
5:51 AM 36.0 °F 33.3 °F 35.1 °F 97% 30.10 in 10.0 mi WSW 3.5 mph - N/A Fog Shallow Fog
6:51 AM 36.0 °F 33.3 °F 35.1 °F 97% 30.11 in 10.0 mi SW 3.5 mph - N/A Fog Shallow Fog
7:51 AM 37.0 °F - 36.0 °F 96% 30.11 in 5.0 mi Calm Calm - N/A Fog Shallow Fog
8:51 AM 39.9 °F - 39.0 °F 97% 30.11 in 4.0 mi Calm Calm - N/A   Overcast
9:51 AM 43.0 °F - 41.0 °F 93% 30.11 in 5.0 mi Calm Calm - N/A   Overcast
10:51 AM 50.0 °F - 44.1 °F 80% 30.10 in 10.0 mi West 4.6 mph - N/A   Mostly Cloudy
11:51 AM 55.0 °F - 41.0 °F 59% 30.09 in 10.0 mi West 8.1 mph - N/A   Mostly Cloudy
12:51 PM 55.9 °F - 41.0 °F 57% 30.07 in 10.0 mi WSW 9.2 mph - N/A   Mostly Cloudy
1:51 PM 60.1 °F - 41.0 °F 49% 30.05 in 10.0 mi North - - N/A   Mostly Cloudy
2:51 PM 61.0 °F - 37.9 °F 42% 30.03 in 10.0 mi NNW 6.9 mph - N/A   Scattered Clouds
3:51 PM 61.0 °F - 37.9 °F 42% 30.01 in 10.0 mi WSW 5.8 mph - N/A   Scattered Clouds
4:51 PM 61.0 °F - 37.0 °F 41% 30.00 in 10.0 mi West 4.6 mph - N/A   Partly Cloudy
5:51 PM 57.9 °F - 39.0 °F 49% 30.01 in 10.0 mi WSW 6.9 mph - N/A   Partly Cloudy
6:51 PM 53.1 °F - 39.0 °F 59% 30.01 in 10.0 mi West 3.5 mph - N/A   Partly Cloudy
7:51 PM 52.0 °F - 37.9 °F 59% 30.02 in 10.0 mi SW 3.5 mph - N/A   Scattered Clouds
8:51 PM 48.9 °F - 37.9 °F 66% 30.02 in 10.0 mi Calm Calm - N/A   Partly Cloudy
9:51 PM 48.0 °F - 41.0 °F 77% 30.02 in 10.0 mi Calm Calm - N/A   Mostly Cloudy
10:51 PM 48.9 °F - 41.0 °F 74% 30.00 in 10.0 mi Calm Calm - N/A   Overcast
11:51 PM 48.0 °F - 42.1 °F 80% 30.00 in 10.0 mi Calm Calm - N/A   Overcast